Location: Bellerive
(46.9237°N, 7.0223°E)
Time: 10:50:35
(UTC+00:00)

Cosmos 841 Rocket - Pass Details

Date: 09 April 2020
Orbit: 747 x 772 km, 74.0° (Epoch: 24 May)

Event Time Altitude Azimuth Distance (km) Brightness Sun altitude
Rises 20:21:02 0° 341° (NNW) 3,259 7.7 -20.5°
Reaches altitude 10° 20:23:32 10° 348° (NNW) 2,327 6.7 -20.9°
Maximum altitude 20:28:36 46° 62° (ENE) 1,034 4.0 -21.5°
Enters shadow 20:29:30 42° 90° (E) 1,098 3.9 -21.6°
